TimeCST,TemperatureF,Dew PointF,Humidity,Sea Level PressureIn,VisibilityMPH,Wind Direction,Wind SpeedMPH,Gust SpeedMPH,PrecipitationIn,Events,Conditions,WindDirDegrees,DateUTC
12:15 AM,60.8,55.4,82,29.98,8.0,NW,23.0,33.4,N/A,,Overcast,310,2014-01-06 06:15:00
12:35 AM,60.8,53.6,77,29.99,9.0,NW,23.0,34.5,N/A,,Overcast,310,2014-01-06 06:35:00
12:55 AM,59.0,51.8,77,30.00,8.0,NW,24.2,34.5,N/A,,Overcast,310,2014-01-06 06:55:00
1:15 AM,59.0,51.8,77,30.01,8.0,NW,24.2,34.5,N/A,,Overcast,310,2014-01-06 07:15:00
1:35 AM,57.2,50.0,77,30.02,8.0,WNW,25.3,34.5,N/A,,Overcast,300,2014-01-06 07:35:00
1:55 AM,57.2,50.0,77,30.03,9.0,WNW,18.4,32.2,N/A,,Overcast,300,2014-01-06 07:55:00
2:15 AM,57.2,48.2,72,30.05,8.0,WNW,12.7,27.6,N/A,,Overcast,300,2014-01-06 08:15:00
2:35 AM,55.4,48.2,77,30.05,8.0,WNW,13.8,32.2,N/A,,Overcast,300,2014-01-06 08:35:00
2:55 AM,55.4,48.2,77,30.07,6.0,WNW,9.2,34.5,N/A,,Haze,300,2014-01-06 08:55:00
3:15 AM,53.6,48.2,82,30.08,7.0,WNW,10.4,35.7,N/A,,Overcast,300,2014-01-06 09:15:00
3:35 AM,53.6,46.4,77,30.09,8.0,WNW,17.3,27.6,N/A,,Overcast,300,2014-01-06 09:35:00
3:55 AM,53.6,46.4,77,30.09,7.0,WNW,16.1,29.9,N/A,,Overcast,300,2014-01-06 09:55:00
4:15 AM,53.6,46.4,77,30.10,7.0,NW,12.7,36.8,N/A,,Overcast,310,2014-01-06 10:15:00
4:35 AM,53.6,46.4,77,30.12,7.0,WNW,13.8,34.5,N/A,,Overcast,300,2014-01-06 10:35:00
4:55 AM,51.8,44.6,76,30.13,7.0,WNW,11.5,23.0,N/A,,Overcast,300,2014-01-06 10:55:00
5:15 AM,50.0,42.8,76,30.15,8.0,WNW,15.0,29.9,N/A,,Overcast,300,2014-01-06 11:15:00
5:35 AM,50.0,42.8,76,30.17,8.0,NW,18.4,36.8,N/A,,Overcast,310,2014-01-06 11:35:00
5:55 AM,50.0,42.8,76,30.18,7.0,WNW,16.1,27.6,N/A,,Overcast,300,2014-01-06 11:55:00
6:15 AM,50.0,42.8,76,30.19,-9999.0,WNW,12.7,29.9,N/A,,Overcast,300,2014-01-06 12:15:00
6:35 AM,50.0,42.8,76,30.21,7.0,WNW,10.4,27.6,N/A,,Overcast,300,2014-01-06 12:35:00
6:55 AM,50.0,41.0,71,30.22,8.0,WNW,18.4,29.9,N/A,,Overcast,300,2014-01-06 12:55:00
7:15 AM,48.2,41.0,76,30.24,7.0,WNW,16.1,29.9,N/A,,Overcast,290,2014-01-06 13:15:00
7:35 AM,48.2,41.0,76,30.26,7.0,WNW,13.8,29.9,N/A,,Overcast,300,2014-01-06 13:35:00
7:55 AM,48.2,39.2,71,30.28,8.0,WNW,9.2,19.6,N/A,,Overcast,300,2014-01-06 13:55:00
8:15 AM,48.2,39.2,71,30.29,7.0,WNW,10.4,20.7,N/A,,Overcast,300,2014-01-06 14:15:00
8:35 AM,48.2,39.2,71,30.29,7.0,NW,11.5,21.9,N/A,,Overcast,310,2014-01-06 14:35:00
8:55 AM,48.2,39.2,71,30.30,8.0,NW,11.5,-,N/A,,Overcast,310,2014-01-06 14:55:00
9:15 AM,48.2,39.2,71,30.32,8.0,Variable,8.1,41.4,N/A,,Overcast,0,2014-01-06 15:15:00
9:35 AM,48.2,39.2,71,30.33,8.0,NW,10.4,19.6,N/A,,Overcast,320,2014-01-06 15:35:00
9:55 AM,48.2,37.4,66,30.34,9.0,NNW,9.2,25.3,N/A,,Mostly Cloudy,330,2014-01-06 15:55:00
10:15 AM,50.0,39.2,66,30.34,9.0,Variable,9.2,19.6,N/A,,Mostly Cloudy,0,2014-01-06 16:15:00
10:35 AM,50.0,37.4,62,30.35,8.0,NW,10.4,17.3,N/A,,Mostly Cloudy,310,2014-01-06 16:35:00
10:55 AM,51.8,39.2,62,30.35,8.0,NW,10.4,24.2,N/A,,Mostly Cloudy,310,2014-01-06 16:55:00
11:15 AM,50.0,39.2,66,30.34,8.0,WNW,12.7,20.7,N/A,,Overcast,300,2014-01-06 17:15:00
11:35 AM,50.0,37.4,62,30.34,9.0,NW,9.2,23.0,N/A,,Overcast,310,2014-01-06 17:35:00
11:55 AM,50.0,37.4,62,30.33,9.0,NW,9.2,23.0,N/A,,Overcast,310,2014-01-06 17:55:00
12:15 PM,48.2,37.4,66,30.33,9.0,NW,9.2,20.7,N/A,,Mostly Cloudy,310,2014-01-06 18:15:00
12:35 PM,50.0,33.8,54,30.34,9.0,NW,8.1,16.1,N/A,,Scattered Clouds,310,2014-01-06 18:35:00
12:55 PM,48.2,37.4,66,30.34,9.0,NW,10.4,16.1,N/A,,Mostly Cloudy,310,2014-01-06 18:55:00
1:15 PM,48.2,37.4,66,30.34,9.0,WNW,12.7,23.0,N/A,,Mostly Cloudy,300,2014-01-06 19:15:00
1:35 PM,46.4,37.4,71,30.35,9.0,NW,12.7,19.6,N/A,,Mostly Cloudy,310,2014-01-06 19:35:00
1:55 PM,46.4,35.6,66,30.35,9.0,WNW,12.7,19.6,N/A,,Scattered Clouds,300,2014-01-06 19:55:00
2:15 PM,46.4,35.6,66,30.36,10.0,NW,10.4,20.7,N/A,,Scattered Clouds,310,2014-01-06 20:15:00
2:35 PM,46.4,35.6,66,30.36,9.0,NW,9.2,19.6,N/A,,Scattered Clouds,310,2014-01-06 20:35:00
2:55 PM,48.2,35.6,62,30.36,10.0,NW,11.5,24.2,N/A,,Scattered Clouds,310,2014-01-06 20:55:00
3:15 PM,48.2,35.6,62,30.37,9.0,WNW,13.8,24.2,N/A,,Scattered Clouds,300,2014-01-06 21:15:00
3:35 PM,48.2,35.6,62,30.37,9.0,NW,10.4,-,N/A,,Scattered Clouds,310,2014-01-06 21:35:00
3:55 PM,48.2,35.6,62,30.38,10.0,WNW,17.3,26.5,N/A,,Partly Cloudy,300,2014-01-06 21:55:00
4:15 PM,48.2,35.6,62,30.38,10.0,WNW,15.0,27.6,N/A,,Partly Cloudy,300,2014-01-06 22:15:00
4:35 PM,48.2,35.6,62,30.37,9.0,WNW,20.7,32.2,N/A,,Scattered Clouds,300,2014-01-06 22:35:00
4:55 PM,48.2,33.8,58,30.38,9.0,WNW,15.0,26.5,N/A,,Partly Cloudy,300,2014-01-06 22:55:00
5:15 PM,48.2,32.0,54,30.39,9.0,NW,15.0,28.8,N/A,,Partly Cloudy,310,2014-01-06 23:15:00
5:35 PM,46.4,33.8,62,30.40,10.0,NW,13.8,27.6,N/A,,Partly Cloudy,310,2014-01-06 23:35:00
5:55 PM,46.4,33.8,62,30.41,10.0,NW,9.2,19.6,N/A,,Scattered Clouds,310,2014-01-06 23:55:00
6:15 PM,44.6,32.0,61,30.43,9.0,NW,11.5,33.4,N/A,,Mostly Cloudy,310,2014-01-07 00:15:00
6:35 PM,44.6,33.8,66,30.45,10.0,WNW,16.1,27.6,N/A,,Mostly Cloudy,300,2014-01-07 00:35:00
6:55 PM,44.6,33.8,66,30.44,10.0,WNW,17.3,27.6,N/A,,Mostly Cloudy,300,2014-01-07 00:55:00
7:15 PM,44.6,32.0,61,30.46,10.0,WNW,10.4,25.3,N/A,,Mostly Cloudy,300,2014-01-07 01:15:00
7:35 PM,44.6,33.8,66,30.46,10.0,Variable,11.5,21.9,N/A,,Mostly Cloudy,0,2014-01-07 01:35:00
7:55 PM,44.6,33.8,66,30.46,10.0,NW,10.4,18.4,N/A,,Mostly Cloudy,310,2014-01-07 01:55:00
8:15 PM,44.6,32.0,61,30.47,10.0,NW,9.2,19.6,N/A,,Mostly Cloudy,310,2014-01-07 02:15:00
8:35 PM,44.6,32.0,61,30.47,10.0,WNW,10.4,26.5,N/A,,Mostly Cloudy,300,2014-01-07 02:35:00
8:55 PM,44.6,30.2,57,30.48,10.0,NW,8.1,26.5,N/A,,Mostly Cloudy,320,2014-01-07 02:55:00
9:15 PM,44.6,32.0,61,30.47,10.0,NNW,12.7,23.0,N/A,,Mostly Cloudy,340,2014-01-07 03:15:00
9:35 PM,42.8,30.2,61,30.47,10.0,NW,9.2,24.2,N/A,,Mostly Cloudy,320,2014-01-07 03:35:00
9:55 PM,42.8,30.2,61,30.47,10.0,NW,9.2,29.9,N/A,,Mostly Cloudy,310,2014-01-07 03:55:00
10:15 PM,42.8,30.2,61,30.48,10.0,North,10.4,21.9,N/A,,Mostly Cloudy,350,2014-01-07 04:15:00
10:35 PM,42.8,28.4,57,30.48,10.0,WNW,11.5,20.7,N/A,,Mostly Cloudy,300,2014-01-07 04:35:00
10:55 PM,42.8,30.2,61,30.49,10.0,NW,9.2,21.9,N/A,,Mostly Cloudy,310,2014-01-07 04:55:00
11:15 PM,42.8,28.4,57,30.49,10.0,NNW,9.2,24.2,N/A,,Mostly Cloudy,340,2014-01-07 05:15:00
11:35 PM,42.8,28.4,57,30.49,10.0,Variable,6.9,24.2,N/A,,Overcast,0,2014-01-07 05:35:00
11:55 PM,42.8,28.4,57,30.49,10.0,NW,8.1,23.0,N/A,,Overcast,320,2014-01-07 05:55:00